Location: Terra Rouge Observatory
(46.0000°N, 62.7500°W)
Time: 04:12:55
(UTC-03:00)

Amateur Radio Satellites - All Passes

Search period start: 25 May 2016 03:42
Search period end: 26 May 2016 03:42
Location: Terra Rouge Observatory, 46.0000°N, 62.7500°W

Satellite Date Start Highest point End Downlink Frequencies (MHz)
Time Altitude Azimuth
PHONESAT 2.4 25 May 03:43:42 03:46:10 21° 195° (SSW) 03:48:38 2401.200-2431.200
KKS-1 25 May 03:45:33 03:49:58 64° 73° (ENE) 03:54:25 437.445
YUBILEINY 25 May 03:55:33 04:04:17 68° 78° (ENE) 04:13:01 435.215
STARS 25 May 04:29:44 04:34:10 86° 256° (WSW) 04:38:36 437.465
Gurwin Techsat 1B 25 May 04:41:18 04:45:44 27° 297° (WNW) 04:50:09 435.225
Oscar 19 25 May 04:45:07 04:47:12 12° 306° (NW) 04:49:18 437.125/150
AO-7 25 May 04:48:06 04:56:19 56° 103° (ESE) 05:04:30 29.400- 29.500
Cosmos 2491 25 May 04:51:42 05:00:25 68° 93° (E) 05:09:09 435.465 / 435.565
CUBESAT XI-V 25 May 04:55:32 04:59:36 30° 67° (ENE) 05:03:42 437.345
Cosmos 2504 25 May 04:57:55 05:05:58 51° 74° (ENE) 05:14:25 435.465 / 435.565
SO-50 25 May 04:58:17 04:59:58 12° 340° (NNW) 05:01:39 436.795
HORYU 2 25 May 05:01:47 05:04:46 18° 92° (E) 05:07:45 437.375
ISS 25 May 05:08:34 05:11:47 58° 213° (SSW) 05:15:00 145.825
MOZHAYETS 4 25 May 05:16:18 05:19:59 24° 267° (W) 05:23:42
ITAMSAT 1 25 May 05:17:59 05:22:30 30° 296° (WNW) 05:27:01 435.822/435.867
KKS-1 25 May 05:24:32 05:26:58 14° 270° (W) 05:29:26 437.445
RS-15 25 May 05:34:11 05:43:36 27° 259° (W) 05:53:01 29.354- 29.394
NOAA 15 25 May 05:51:39 05:53:46 12° 87° (E) 05:55:53 137.62
YUBILEINY 25 May 05:53:16 06:00:23 29° 279° (W) 06:07:32 435.215
CUTE-I 25 May 06:31:13 06:35:08 20° 91° (E) 06:39:02 437.470
CUBESAT XI-V 25 May 06:32:44 06:36:55 33° 264° (W) 06:41:10 437.345
HORYU 2 25 May 06:37:20 06:41:38 51° 289° (WNW) 06:45:56 437.375
STRAND 1 25 May 06:38:23 06:42:51 32° 65° (ENE) 06:47:21 437.568
AO-7 25 May 06:41:17 06:48:49 40° 303° (WNW) 06:56:24 29.400- 29.500
Cosmos 2491 25 May 06:50:24 06:57:59 31° 295° (WNW) 07:05:36 435.465 / 435.565
Cosmos 2504 25 May 06:51:38 06:59:10 40° 274° (W) 07:07:03 435.465 / 435.565
NOAA 18 25 May 06:57:15 07:02:24 39° 98° (E) 07:07:30 137.9125
AO-85 25 May 06:58:05 07:03:07 39° 117° (ESE) 07:08:04 145.980
BRITE-PL 25 May 07:19:01 07:24:18 62° 100° (E) 07:29:07 437.365/2234.400
Cubesat XI-IV 25 May 07:23:00 07:28:16 55° 101° (E) 07:33:32 437.490
DOVE 4 25 May 07:26:15 07:28:57 16° 89° (E) 07:31:33 437.250
NOAA 15 25 May 07:28:58 07:34:19 87° 105° (ESE) 07:39:37 137.62
LilacSat-2 25 May 07:42:28 07:46:15 85° 284° (WNW) 07:50:02 437.200
GONETS M04 25 May 07:49:46 07:55:29 19° 56° (NE) 08:01:09
Cosmos 2499 25 May 07:51:23 07:53:39 11° 49° (NE) 07:55:57 435.465 / 435.565
PRISM 25 May 07:53:14 07:56:48 28° 67° (ENE) 08:00:25 437.425
GOMX 1 25 May 07:58:58 08:03:50 72° 101° (E) 08:08:20 467.674
CUTE-I 25 May 08:10:19 08:15:35 60° 289° (WNW) 08:20:51 437.470
STRAND 1 25 May 08:17:17 08:21:57 36° 263° (W) 08:26:40 437.568
CINEMA 3 25 May 08:18:13 08:20:47 16° 90° (E) 08:23:19 145.822/145.860
AIST 1 25 May 08:21:55 08:25:41 27° 72° (ENE) 08:29:24
SO-50 25 May 08:22:12 08:25:21 17° 30° (NNE) 08:28:26 436.795
AUBIESAT-1 25 May 08:31:13 08:33:05 14° 98° (E) 08:34:56 437.475
COMPASS 1 25 May 08:31:17 08:32:31 11° 88° (E) 08:33:45 437.405
M-CUBED/EXP-1 PRIME 25 May 08:34:50 08:37:17 19° 100° (E) 08:39:42 437.505
AO-7 25 May 08:36:52 08:39:19 12° 327° (NNW) 08:41:45 29.400- 29.500
AAUSAT CUBESAT 2 25 May 08:37:34 08:37:54 10° 87° (E) 08:38:14 437.432
NOAA 18 25 May 08:38:07 08:42:57 33° 296° (WNW) 08:47:47 137.9125
AO-85 25 May 08:38:29 08:43:39 42° 315° (NW) 08:48:39 145.980
BRITE-PL 25 May 08:58:25 09:02:13 20° 300° (WNW) 09:05:49 437.365/2234.400
DOVE 4 25 May 09:02:41 09:07:07 54° 288° (WNW) 09:11:17 437.250
Cubesat XI-IV 25 May 09:03:48 09:07:59 24° 299° (WNW) 09:12:09 437.490
CANX-2 25 May 09:04:23 09:08:35 53° 100° (E) 09:12:48 2200.000
NOAA 15 25 May 09:10:18 09:13:23 16° 304° (NW) 09:16:27 137.62
HO-68 25 May 09:11:52 09:18:56 57° 102° (ESE) 09:25:57 435.675
SEEDS 25 May 09:13:00 09:17:04 42° 98° (E) 09:21:07 437.485
Oscar 11 25 May 09:25:48 09:28:19 15° 90° (E) 09:30:49 145.826/435.025
CUBEBUG 2 25 May 09:26:21 09:29:53 26° 95° (E) 09:33:25 437.445
PRISM 25 May 09:28:30 09:32:04 28° 264° (W) 09:35:42 437.425
CUTE 1.7 + AOD 2 25 May 09:32:10 09:36:29 88° 280° (W) 09:40:46 437.475
ZACube-1 25 May 09:34:14 09:36:46 16° 91° (E) 09:39:20 437.345
UNISAT 6 25 May 09:37:10 09:40:27 21° 64° (ENE) 09:43:43 437.425
GOMX 1 25 May 09:38:26 09:41:16 16° 302° (WNW) 09:44:01 467.674
Cosmos 2499 25 May 09:41:01 09:49:10 49° 73° (ENE) 09:57:39 435.465 / 435.565
GONETS M04 25 May 09:45:14 09:54:00 77° 80° (E) 10:02:41
TIGRISAT 25 May 09:45:28 09:48:58 24° 66° (ENE) 09:52:26 435.000
CUTE-I 25 May 09:53:44 09:54:35 10° 308° (NW) 09:55:25 437.470
CINEMA 3 25 May 09:54:12 09:58:17 49° 288° (WNW) 10:02:17 145.822/145.860
AIST 1 25 May 09:59:29 10:03:15 29° 271° (W) 10:07:00
UWE-3 25 May 10:00:41 10:04:40 43° 99° (E) 10:08:40 435.000/436.395/437.385
SO-50 25 May 10:01:57 10:06:42 72° 52° (NE) 10:11:16 436.795
COMPASS 1 25 May 10:04:22 10:08:35 74° 286° (WNW) 10:12:47 437.405
AUBIESAT-1 25 May 10:04:43 10:07:48 35° 296° (WNW) 10:10:51 437.475
M-CUBED/EXP-1 PRIME 25 May 10:09:07 10:11:55 26° 298° (WNW) 10:14:41 437.505
AAUSAT CUBESAT 2 25 May 10:09:44 10:13:56 80° 287° (WNW) 10:18:08 437.432
PCSat 25 May 10:11:04 10:15:32 27° 109° (ESE) 10:20:00 145.827
FUNcube-1 25 May 10:12:53 10:16:47 37° 98° (E) 10:20:41 145.935
ANTELSAT 25 May 10:17:22 10:21:36 51° 72° (ENE) 10:25:47 437.575/2403.000
NANOSAT C BR1 25 May 10:18:59 10:20:17 11° 59° (ENE) 10:21:35 145.865
AO-85 25 May 10:22:49 10:25:29 14° 336° (NNW) 10:28:07 145.980
O/OREOS (USA 219) 25 May 10:29:10 10:33:34 50° 109° (ESE) 10:37:59 437.305
CANX-2 25 May 10:41:16 10:44:03 17° 297° (WNW) 10:46:51 2200.000
SEEDS 25 May 10:49:22 10:52:30 20° 295° (WNW) 10:55:39 437.485
DUCHIFAT 1 25 May 10:56:28 10:59:53 24° 66° (ENE) 11:03:18 145.980
CUSAT 1 25 May 10:57:44 11:00:37 13° 73° (ENE) 11:03:42 437.405
HO-68 25 May 11:00:05 11:06:19 34° 301° (WNW) 11:12:34 435.675
Oscar 11 25 May 11:00:32 11:04:49 58° 287° (WNW) 11:09:04 145.826/435.025
CUBEBUG 2 25 May 11:02:55 11:06:31 29° 292° (WNW) 11:10:08 437.445
DELFI C3 25 May 11:02:58 11:07:01 78° 102° (ESE) 11:11:03 145.870
ZACube-1 25 May 11:09:19 11:13:23 51° 287° (WNW) 11:17:27 437.345
CUTE 1.7 + AOD 2 25 May 11:10:40 11:11:37 11° 302° (WNW) 11:12:35 437.475
UNISAT 6 25 May 11:12:46 11:16:56 42° 261° (W) 11:21:04 437.425
TIGRISAT 25 May 11:21:27 11:25:30 36° 262° (W) 11:29:31 435.000
BUGSAT 1 25 May 11:26:12 11:29:38 25° 66° (ENE) 11:33:03 437.445
POPSAT HIP 1 25 May 11:30:29 11:34:39 58° 73° (ENE) 11:38:50 437.405
QB50P1 25 May 11:31:09 11:35:20 60° 73° (ENE) 11:39:31 145.935-145.965
QB50P2 25 May 11:32:26 11:36:38 66° 74° (ENE) 11:40:51 145.880/145.840
Cosmos 2499 25 May 11:34:23 11:42:12 43° 273° (W) 11:50:20 435.465 / 435.565
POLYITAN 1 25 May 11:34:52 11:39:04 67° 75° (ENE) 11:43:17 437.675
UWE-3 25 May 11:37:53 11:40:52 19° 296° (WNW) 11:43:51 435.000/436.395/437.385
HUMSAT D 25 May 11:41:27 11:45:37 89° 276° (W) 11:49:47 437.325/437.525
GONETS M04 25 May 11:43:16 11:49:53 25° 281° (W) 11:56:30
SO-50 25 May 11:43:46 11:46:35 16° 251° (WSW) 11:49:22 436.795
AISAT 25 May 11:47:58 11:50:35 15° 90° (E) 11:53:11 437.250
FUNcube-1 25 May 11:49:37 11:52:50 22° 294° (WNW) 11:56:05 145.935
NANOSAT C BR1 25 May 11:51:07 11:55:21 87° 251° (WSW) 11:59:37 145.865
PCSat 25 May 11:53:20 11:58:37 53° 308° (NW) 12:03:58 145.827
ANTELSAT 25 May 11:55:46 11:58:36 17° 269° (W) 12:01:25 437.575/2403.000
JAS-2 25 May 11:57:18 12:03:47 34° 59° (ENE) 12:10:35 435.910
BEESAT 3 25 May 12:01:17 12:04:02 18° 113° (ESE) 12:06:48 437.485
DANDE 25 May 12:06:52 12:10:49 20° 78° (ENE) 12:15:26 436.750
O/OREOS (USA 219) 25 May 12:09:44 12:13:16 22° 308° (NW) 12:16:48 437.305
UKube-1 25 May 12:10:42 12:13:32 17° 92° (E) 12:16:20 .
ESTCUBE 1 25 May 12:13:46 12:18:03 39° 98° (E) 12:22:18 437.505/2401.250
50 SAT 25 May 12:22:53 12:26:19 35° 98° (E) 12:29:45 437.505
DUCHIFAT 1 25 May 12:31:35 12:35:27 34° 263° (W) 12:39:19 145.980
CUSAT 1 25 May 12:34:51 12:41:00 69° 95° (E) 12:48:35 437.405
DELFI C3 25 May 12:39:57 12:41:18 11° 300° (WNW) 12:42:39 145.870
Oscar 19 25 May 12:44:32 12:48:58 29° 64° (ENE) 12:53:26 437.125/150
VELOX 1 25 May 12:47:17 12:51:41 57° 101° (E) 12:56:01 145.980
Gurwin Techsat 1B 25 May 12:47:31 12:50:30 15° 56° (ENE) 12:53:29 435.225
CUBEBUG 1 25 May 12:47:32 12:51:54 60° 101° (E) 12:56:13 437.445
DX 1 25 May 12:51:17 12:55:35 53° 101° (E) 12:59:50 434.975-435.025
BEESAT 2 25 May 12:57:36 13:01:20 40° 119° (ESE) 13:05:05 435.950
BUGSAT 1 25 May 13:01:02 13:04:53 33° 263° (W) 13:08:43 437.445
POPSAT HIP 1 25 May 13:08:30 13:10:49 14° 270° (W) 13:13:08 437.405
QB50P1 25 May 13:09:18 13:11:30 14° 270° (W) 13:13:43 145.935-145.965
QB50P2 25 May 13:10:59 13:12:53 13° 271° (W) 13:14:48 145.880/145.840
POLYITAN 1 25 May 13:13:32 13:15:20 12° 271° (W) 13:17:09 437.675
HUMSAT D 25 May 13:19:58 13:20:35 10° 301° (WNW) 13:21:11 437.325/437.525
ITAMSAT 1 25 May 13:22:53 13:25:08 13° 54° (NE) 13:27:23 435.822/435.867
AISAT 25 May 13:23:05 13:27:27 59° 288° (WNW) 13:31:47 437.250
SPROUT 25 May 13:26:50 13:31:05 63° 102° (ESE) 13:35:17 437.525
BEESAT 3 25 May 13:37:34 13:41:24 48° 311° (NW) 13:45:16 437.485
PCSat 25 May 13:40:24 13:43:19 14° 331° (NNW) 13:46:15 145.827
JAS-2 25 May 13:41:05 13:48:16 62° 260° (W) 13:56:04 435.910
UKube-1 25 May 13:45:40 13:49:53 51° 289° (WNW) 13:54:03 .
DANDE 25 May 13:47:13 13:52:33 71° 284° (WNW) 13:59:40 436.750
AO-85 25 May 13:48:07 13:51:04 15° 27° (NNE) 13:53:52 145.980
ESTCUBE 1 25 May 13:50:58 13:54:40 25° 295° (WNW) 13:58:21 437.505/2401.250
50 SAT 25 May 13:57:10 13:59:50 19° 295° (WNW) 14:02:30 437.505
AO-7 25 May 13:59:47 14:06:06 25° 49° (NE) 14:12:25 29.400- 29.500
TISAT 1 25 May 14:00:58 14:04:56 41° 99° (E) 14:08:53 437.305
CUSAT 1 25 May 14:18:29 14:23:57 27° 300° (WNW) 14:30:17 437.405
Oscar 19 25 May 14:23:14 14:28:07 41° 262° (W) 14:33:03 437.125/150
Gurwin Techsat 1B 25 May 14:24:23 14:29:43 90° 258° (WSW) 14:35:04 435.225
VELOX 1 25 May 14:24:49 14:27:43 17° 299° (WNW) 14:30:36 145.980
CUBEBUG 1 25 May 14:25:01 14:27:43 16° 299° (WNW) 14:30:26 437.445
DX 1 25 May 14:28:26 14:31:23 18° 298° (WNW) 14:34:20 434.975-435.025
BEESAT 2 25 May 14:35:55 14:39:19 26° 318° (NW) 14:42:43 435.950
AIST 2 25 May 14:45:23 14:49:11 36° 118° (ESE) 14:53:00 435.215
ITAMSAT 1 25 May 14:58:36 15:03:45 78° 73° (ENE) 15:08:58 435.822/435.867
Cosmos 2491 25 May 14:59:11 15:07:15 39° 68° (ENE) 15:15:14 435.465 / 435.565
SPROUT 25 May 15:04:09 15:06:32 15° 299° (WNW) 15:08:56 437.525
SWISSCUBE 25 May 15:04:09 15:08:41 41° 98° (E) 15:13:13 437.505
YUBILEINY 25 May 15:08:24 15:12:38 15° 72° (ENE) 15:16:52 435.215
ITUPSAT 1 25 May 15:08:52 15:13:25 40° 98° (E) 15:17:56 437.325
BEESAT 3 25 May 15:19:07 15:20:03 11° 332° (NNW) 15:20:59 437.485
AO-85 25 May 15:27:52 15:32:38 60° 50° (NE) 15:36:57 145.980
JAS-2 25 May 15:32:10 15:34:55 12° 281° (W) 15:37:45 435.910
DANDE 25 May 15:33:49 15:37:12 15° 310° (NW) 15:40:58 436.750
BEESAT 25 May 15:34:02 15:38:50 72° 103° (ESE) 15:43:37 436.000
TISAT 1 25 May 15:37:15 15:40:20 20° 296° (WNW) 15:43:25 437.305
AO-7 25 May 15:49:33 15:57:51 89° 70° (ENE) 16:06:15 29.400- 29.500
HORYU 2 25 May 16:02:05 16:05:34 23° 64° (ENE) 16:09:02 437.375
Gurwin Techsat 1B 25 May 16:08:08 16:10:25 13° 273° (W) 16:12:42 435.225
STARS 25 May 16:18:07 16:20:30 14° 90° (E) 16:22:51 437.465
AIST 2 25 May 16:24:05 16:27:44 29° 317° (NW) 16:31:24 435.215
ITAMSAT 1 25 May 16:41:02 16:43:50 15° 271° (W) 16:46:40 435.822/435.867
SWISSCUBE 25 May 16:42:20 16:46:17 26° 296° (WNW) 16:50:14 437.505
ITUPSAT 1 25 May 16:47:05 16:51:04 26° 296° (WNW) 16:55:03 437.325
NOAA 18 25 May 16:48:20 16:51:37 16° 56° (NE) 16:54:53 137.9125
BRITE-PL 25 May 16:55:28 16:58:51 16° 57° (ENE) 17:02:14 437.365/2234.400
Cosmos 2491 25 May 16:55:58 17:04:24 54° 270° (W) 17:12:44 435.465 / 435.565
YUBILEINY 25 May 16:59:08 17:07:44 71° 94° (E) 17:16:23 435.215
MOZHAYETS 4 25 May 17:07:29 17:12:07 67° 102° (ESE) 17:16:43
AO-85 25 May 17:09:24 17:12:33 18° 251° (WSW) 17:15:32 145.980
Cubesat XI-IV 25 May 17:09:51 17:13:25 19° 58° (ENE) 17:17:00 437.490
KKS-1 25 May 17:10:22 17:14:51 89° 280° (W) 17:19:16 437.445
NOAA 15 25 May 17:13:01 17:17:25 27° 63° (ENE) 17:21:50 137.62
BEESAT 25 May 17:13:10 17:16:05 16° 301° (WNW) 17:18:59 436.000
PCSat 25 May 17:13:31 17:15:36 12° 25° (NNE) 17:17:41 145.827
GOMX 1 25 May 17:32:53 17:36:14 17° 59° (ENE) 17:39:33 467.674
HORYU 2 25 May 17:37:45 17:41:55 40° 262° (W) 17:46:06 437.375
Cosmos 2504 25 May 17:40:31 17:46:54 35° 85° (E) 17:53:35 435.465 / 435.565
AO-7 25 May 17:45:44 17:51:40 21° 270° (W) 17:57:41 29.400- 29.500
RS-15 25 May 17:46:36 17:57:11 48° 110° (ESE) 18:08:19 29.354- 29.394
STARS 25 May 17:52:57 17:57:17 61° 288° (WNW) 18:01:34 437.465
CUTE-I 25 May 17:55:10 18:00:07 42° 67° (ENE) 18:05:06 437.470
HO-68 25 May 18:00:28 18:03:29 13° 44° (NE) 18:06:30 435.675
NOAA 18 25 May 18:26:04 18:31:33 88° 256° (WSW) 18:37:03 137.9125
CUBESAT XI-V 25 May 18:26:06 18:30:44 52° 99° (E) 18:35:19 437.345
LilacSat-2 25 May 18:26:30 18:30:17 66° 74° (ENE) 18:34:03 437.200
BRITE-PL 25 May 18:30:50 18:36:29 87° 73° (ENE) 18:42:14 437.365/2234.400
DOVE 4 25 May 18:32:53 18:37:09 26° 65° (ENE) 18:41:18 437.250
MOZHAYETS 4 25 May 18:45:56 18:48:47 16° 299° (WNW) 18:51:37
Cubesat XI-IV 25 May 18:47:37 18:52:55 73° 257° (WSW) 18:58:16 437.490
KKS-1 25 May 18:49:12 18:50:43 12° 303° (WNW) 18:52:13 437.445
NOAA 15 25 May 18:51:51 18:56:57 47° 261° (W) 19:02:05 137.62
CUTE 1.7 + AOD 2 25 May 18:55:10 18:55:58 10° 58° (ENE) 18:56:46 437.475
PCSat 25 May 18:55:27 19:00:35 40° 48° (NE) 19:05:40 145.827
O/OREOS (USA 219) 25 May 18:58:01 19:01:23 20° 51° (NE) 19:04:42 437.305
YUBILEINY 25 May 18:58:04 19:05:21 29° 296° (WNW) 19:12:41 435.215
GOMX 1 25 May 19:08:07 19:13:38 86° 257° (WSW) 19:19:05 467.674
AUBIESAT-1 25 May 19:18:21 19:22:08 36° 65° (ENE) 19:25:41 437.475
CINEMA 3 25 May 19:21:37 19:25:19 23° 65° (ENE) 19:28:54 145.822/145.860
M-CUBED/EXP-1 PRIME 25 May 19:22:36 19:26:40 49° 67° (ENE) 19:30:27 437.505
COMPASS 1 25 May 19:25:00 19:26:22 11° 59° (ENE) 19:27:44 437.405
AAUSAT CUBESAT 2 25 May 19:30:33 19:31:19 10° 59° (ENE) 19:32:05 437.432
Cosmos 2504 25 May 19:33:08 19:40:03 47° 287° (WNW) 19:47:22 435.465 / 435.565
CUTE-I 25 May 19:35:43 19:40:17 29° 265° (W) 19:44:53 437.470
BEESAT 2 25 May 19:36:58 19:38:26 12° 29° (NNE) 19:39:54 435.950
HO-68 25 May 19:42:47 19:49:41 54° 65° (ENE) 19:56:36 435.675
RS-15 25 May 19:58:00 20:09:22 62° 316° (NW) 20:21:25 29.354- 29.394
CANX-2 25 May 19:59:20 20:03:24 51° 72° (ENE) 20:07:31 2200.000
CUBESAT XI-V 25 May 20:04:17 20:07:46 21° 297° (WNW) 20:11:12 437.345
LilacSat-2 25 May 20:04:24 20:05:01 10° 272° (W) 20:05:37 437.200
SEEDS 25 May 20:07:00 20:10:53 39° 70° (ENE) 20:14:49 437.485
DOVE 4 25 May 20:09:33 20:14:36 47° 261° (W) 20:19:31 437.250
NOAA 18 25 May 20:10:36 20:13:00 13° 272° (W) 20:15:23 137.9125
BRITE-PL 25 May 20:12:25 20:15:39 15° 274° (W) 20:18:55 437.365/2234.400
BEESAT 3 25 May 20:15:12 20:18:40 28° 43° (NE) 20:22:06 437.485
Oscar 11 25 May 20:23:08 20:25:53 17° 62° (ENE) 20:28:38 145.826/435.025
STRAND 1 25 May 20:24:34 20:29:41 63° 102° (ESE) 20:34:47 437.568
CUBEBUG 2 25 May 20:26:41 20:30:33 31° 69° (ENE) 20:34:20 437.445
CUTE 1.7 + AOD 2 25 May 20:26:54 20:31:07 88° 76° (ENE) 20:35:22 437.475
ZACube-1 25 May 20:32:37 20:35:28 18° 64° (ENE) 20:38:19 437.345
O/OREOS (USA 219) 25 May 20:36:44 20:41:07 54° 250° (WSW) 20:45:28 437.305
PCSat 25 May 20:38:59 20:43:57 37° 248° (WSW) 20:48:52 145.827
GOMX 1 25 May 20:49:57 20:52:24 13° 274° (W) 20:54:52 467.674
AUBIESAT-1 25 May 20:53:26 20:56:41 22° 259° (W) 20:59:47 437.475
AIST 1 25 May 20:55:13 20:57:40 15° 84° (E) 21:00:05
GONETS M04 25 May 20:56:52 21:02:08 18° 74° (ENE) 21:07:21
COMPASS 1 25 May 20:57:10 21:01:17 82° 255° (WSW) 21:05:29 437.405
CINEMA 3 25 May 20:57:40 21:02:14 44° 262° (W) 21:06:38 145.822/145.860
M-CUBED/EXP-1 PRIME 25 May 20:58:37 21:01:23 17° 261° (W) 21:04:03 437.505
UWE-3 25 May 20:59:51 21:04:00 47° 72° (ENE) 21:08:05 435.000/436.395/437.385
AAUSAT CUBESAT 2 25 May 21:02:00 21:06:07 89° 257° (WSW) 21:10:18 437.432
PRISM 25 May 21:07:07 21:10:53 31° 97° (E) 21:14:36 437.425
FUNcube-1 25 May 21:10:42 21:14:38 39° 70° (ENE) 21:18:32 145.935
BEESAT 2 25 May 21:13:13 21:17:10 55° 50° (NE) 21:21:05 435.950
CUSAT 1 25 May 21:26:29 21:31:11 16° 52° (NE) 21:35:36 437.405
AIST 2 25 May 21:27:09 21:28:49 12° 29° (NNE) 21:30:29 435.215
HO-68 25 May 21:31:23 21:37:40 33° 265° (W) 21:44:01 435.675
CANX-2 25 May 21:36:58 21:39:34 16° 270° (W) 21:42:12 2200.000
SEEDS 25 May 21:43:40 21:46:46 20° 268° (W) 21:49:53 437.485
DELFI C3 25 May 21:51:02 21:54:56 61° 74° (ENE) 21:58:53 145.870
ISS 25 May 21:52:05 21:52:48 11° 132° (SE) 21:53:31 145.825
BEESAT 3 25 May 21:52:47 21:56:25 35° 242° (WSW) 22:00:01 437.485
Oscar 11 25 May 21:57:24 22:01:36 55° 260° (W) 22:05:51 145.826/435.025
CUBEBUG 2 25 May 22:03:27 22:07:12 27° 265° (W) 22:10:52 437.445
STRAND 1 25 May 22:04:43 22:08:25 20° 300° (WNW) 22:12:06 437.568
ZACube-1 25 May 22:07:20 22:11:27 48° 261° (W) 22:15:32 437.345
RS-15 25 May 22:14:33 22:24:54 33° 348° (NNW) 22:35:39 29.354- 29.394
Cosmos 2499 25 May 22:21:56 22:28:10 32° 83° (E) 22:34:46 435.465 / 435.565
AIST 1 25 May 22:30:25 22:34:45 57° 282° (WNW) 22:39:07
HUMSAT D 25 May 22:34:52 22:38:56 85° 79° (E) 22:43:03 437.325/437.525
UWE-3 25 May 22:37:50 22:40:43 17° 268° (W) 22:43:34 435.000/436.395/437.385
DANDE 25 May 22:40:16 22:47:21 29° 62° (ENE) 22:54:12 436.750
PRISM 25 May 22:42:35 22:46:05 26° 294° (WNW) 22:49:33 437.425
AISAT 25 May 22:47:33 22:50:48 20° 63° (ENE) 22:54:03 437.250
FUNcube-1 25 May 22:47:53 22:51:02 20° 267° (W) 22:54:11 145.935
GONETS M04 25 May 22:48:42 22:57:30 81° 95° (E) 23:06:17
BEESAT 2 25 May 22:52:04 22:54:36 16° 248° (WSW) 22:57:08 435.950
UNISAT 6 25 May 23:01:46 23:05:34 30° 96° (E) 23:09:24 437.425
50 SAT 25 May 23:03:49 23:06:46 24° 67° (ENE) 23:09:44 437.505
AIST 2 25 May 23:04:08 23:08:14 54° 50° (NE) 23:12:18 435.215
CUSAT 1 25 May 23:07:07 23:15:06 64° 74° (ENE) 23:21:57 437.405
UKube-1 25 May 23:07:32 23:10:46 21° 63° (ENE) 23:14:01 .
TIGRISAT 25 May 23:10:01 23:13:57 35° 97° (E) 23:17:54 435.000
ESTCUBE 1 25 May 23:15:26 23:19:46 48° 71° (ENE) 23:24:09 437.505/2401.250
ISS 25 May 23:25:27 23:28:41 68° 149° (SSE) 23:31:56 145.825
DELFI C3 25 May 23:28:38 23:30:13 12° 271° (W) 23:31:49 145.870
PHONESAT 2.4 25 May 23:30:25 23:31:50 12° 156° (SSE) 23:33:15 2401.200-2431.200
NANOSAT C BR1 25 May 23:34:55 23:36:42 12° 89° (E) 23:38:30 145.865
ANTELSAT 25 May 23:42:46 23:47:04 82° 103° (ESE) 23:51:25 437.575/2403.000
CUBEBUG 1 25 May 23:45:28 23:49:52 68° 73° (ENE) 23:54:18 437.445
VELOX 1 25 May 23:46:37 23:51:03 69° 74° (ENE) 23:55:31 145.980
DX 1 25 May 23:48:50 23:53:10 63° 72° (ENE) 23:57:32 434.975-435.025
DUCHIFAT 1 26 May 00:13:04 00:16:45 29° 96° (E) 00:20:24 145.980
Cosmos 2499 26 May 00:13:50 00:20:53 53° 286° (WNW) 00:28:29 435.465 / 435.565
SO-50 26 May 00:20:44 00:23:03 13° 108° (ESE) 00:25:23 436.795
SPROUT 26 May 00:22:26 00:26:42 66° 73° (ENE) 00:30:59 437.525
AISAT 26 May 00:22:36 00:26:57 49° 260° (W) 00:31:19 437.250
DANDE 26 May 00:22:37 00:31:05 78° 262° (W) 00:38:59 436.750
RS-15 26 May 00:30:50 00:41:51 37° 22° (NNE) 00:53:02 29.354- 29.394
50 SAT 26 May 00:37:22 00:40:27 25° 265° (W) 00:43:32 437.505
UNISAT 6 26 May 00:38:36 00:42:15 28° 293° (WNW) 00:45:55 437.425
BUGSAT 1 26 May 00:40:21 00:43:51 27° 95° (E) 00:47:17 437.445
UKube-1 26 May 00:42:23 00:46:32 44° 261° (W) 00:50:43 .
AIST 2 26 May 00:43:30 00:46:21 18° 248° (WSW) 00:49:11 435.215
TIGRISAT 26 May 00:47:02 00:50:30 24° 294° (WNW) 00:53:59 435.000
GONETS M04 26 May 00:48:22 00:55:22 26° 298° (WNW) 01:02:24
POPSAT HIP 1 26 May 00:48:22 00:52:36 78° 103° (ESE) 00:56:47 437.405
QB50P1 26 May 00:48:59 00:53:13 81° 104° (ESE) 00:57:25 145.935-145.965
JAS-2 26 May 00:49:36 00:55:15 22° 86° (E) 01:00:30 435.910
CUSAT 1 26 May 00:50:03 00:56:35 30° 277° (W) 01:02:25 437.405
QB50P2 26 May 00:50:31 00:54:46 88° 111° (ESE) 00:58:58 145.880/145.840
POLYITAN 1 26 May 00:52:58 00:57:12 90° 109° (ESE) 01:01:23 437.675
ESTCUBE 1 26 May 00:53:35 00:56:50 19° 268° (W) 01:00:07 437.505/2401.250
TISAT 1 26 May 00:54:44 00:58:44 43° 70° (ENE) 01:02:45 437.305
ISS 26 May 01:02:17 01:05:19 35° 348° (NNW) 01:08:22 145.825
PHONESAT 2.4 26 May 01:05:17 01:07:59 26° 172° (S) 01:10:42 2401.200-2431.200
BEESAT 26 May 01:07:35 01:10:18 15° 58° (ENE) 01:13:01 436.000
NANOSAT C BR1 26 May 01:08:44 01:12:53 65° 287° (WNW) 01:17:02 145.865
ANTELSAT 26 May 01:21:33 01:23:11 12° 301° (WNW) 01:24:50 437.575/2403.000
CUBEBUG 1 26 May 01:24:27 01:26:37 13° 271° (W) 01:28:48 437.445
VELOX 1 26 May 01:25:51 01:28:00 13° 271° (W) 01:30:10 145.980
DX 1 26 May 01:27:26 01:29:47 14° 270° (W) 01:32:08 434.975-435.025
DUCHIFAT 1 26 May 01:48:50 01:52:23 27° 293° (WNW) 01:55:54 145.980
SO-50 26 May 01:57:55 02:02:51 89° 129° (SE) 02:07:46 436.795
SPROUT 26 May 02:01:04 02:03:06 13° 271° (W) 02:05:08 437.525
DANDE 26 May 02:07:16 02:12:38 19° 282° (WNW) 02:17:50 436.750
SWISSCUBE 26 May 02:12:49 02:17:30 62° 72° (ENE) 02:22:13 437.505
Cosmos 2499 26 May 02:14:31 02:16:19 11° 312° (NW) 02:18:10 435.465 / 435.565
BUGSAT 1 26 May 02:15:43 02:19:12 27° 293° (WNW) 02:22:37 437.445
ITUPSAT 1 26 May 02:17:50 02:22:31 62° 72° (ENE) 02:27:15 437.325
POPSAT HIP 1 26 May 02:26:07 02:27:46 12° 301° (WNW) 02:29:26 437.405
QB50P1 26 May 02:26:50 02:28:23 12° 301° (WNW) 02:29:55 145.935-145.965
QB50P2 26 May 02:28:46 02:29:54 11° 302° (WNW) 02:31:03 145.880/145.840
POLYITAN 1 26 May 02:31:21 02:32:19 11° 302° (WNW) 02:33:18 437.675
TISAT 1 26 May 02:31:33 02:34:36 19° 268° (W) 02:37:39 437.305
Oscar 19 26 May 02:31:50 02:36:58 58° 101° (E) 02:42:00 437.125/150
JAS-2 26 May 02:33:29 02:41:10 79° 288° (WNW) 02:48:04 435.910
KKS-1 26 May 02:36:32 02:38:58 15° 59° (ENE) 02:41:23 437.445
MOZHAYETS 4 26 May 02:38:22 02:39:41 11° 57° (ENE) 02:41:00
Gurwin Techsat 1B 26 May 02:38:26 02:43:05 30° 95° (E) 02:47:42 435.225
ISS 26 May 02:39:21 02:42:18 31° 8° (N) 02:45:16 145.825
PHONESAT 2.4 26 May 02:41:38 02:44:19 26° 189° (S) 02:47:00 2401.200-2431.200
BEESAT 26 May 02:42:44 02:47:29 77° 256° (WSW) 02:52:17 436.000
RS-15 26 May 02:44:14 02:56:36 79° 51° (NE) 03:08:58 29.354- 29.394
YUBILEINY 26 May 03:06:14 03:14:22 40° 69° (ENE) 03:22:29 435.215
ITAMSAT 1 26 May 03:09:32 03:13:37 23° 93° (E) 03:17:41 435.822/435.867
STARS 26 May 03:16:57 03:20:02 19° 62° (ENE) 03:23:08 437.465
Cosmos 2504 26 May 03:28:50 03:34:08 18° 57° (ENE) 03:39:35 435.465 / 435.565
